| time (UTC) | temp F | wind direction | speed MPH | gust MPH | rain 1hr in | rain 24hr in | rain mn in | humidity % | barometer mb |
| 20260502223009 | 66 | 15 | 3.0 | 8.0 | 0.00 | 0.00 | 0.00 | 37 | 1013.7 |
| 20260502221508 | 67 | 47 | 0.0 | 1.0 | 0.00 | 0.00 | 0.00 | 36 | 1013.9 |
| 20260502220011 | 67 | 195 | 1.0 | 9.0 | 0.00 | 0.00 | 0.00 | 36 | 1013.9 |
| 20260502214519 | 66 | 89 | 0.0 | 4.0 | 0.00 | 0.00 | 0.00 | 35 | 1014.1 |
| 20260502213004 | 67 | 299 | 0.0 | 6.0 | 0.00 | 0.00 | 0.00 | 33 | 1014.2 |
| 20260502211512 | 67 | 323 | 0.0 | 2.0 | 0.00 | 0.00 | 0.00 | 35 | 1014.2 |
| 20260502210009 | 67 | 355 | 0.0 | 5.0 | 0.00 | 0.00 | 0.00 | 34 | 1014.4 |
| 20260502204504 | 66 | 16 | 2.0 | 15.0 | 0.00 | 0.00 | 0.00 | 34 | 1014.6 |
| 20260502203104 | 67 | 250 | 0.0 | 12.0 | 0.00 | 0.00 | 0.00 | 36 | 1014.6 |
| 20260502201558 | 68 | 302 | 0.0 | 1.0 | 0.00 | 0.00 | 0.00 | 37 | 1014.6 |
| 20260502200058 | 67 | 25 | 5.0 | 15.0 | 0.00 | 0.00 | 0.00 | 37 | 1014.9 |
| 20260502194556 | 66 | 207 | 1.0 | 9.0 | 0.00 | 0.00 | 0.00 | 36 | 1014.9 |
| 20260502193024 | 66 | 90 | 0.0 | 5.0 | 0.00 | 0.00 | 0.00 | 36 | 1015.1 |
| 20260502191522 | 66 | 345 | 3.0 | 17.0 | 0.00 | 0.00 | 0.00 | 36 | 1015.2 |
| 20260502190018 | 65 | 88 | 1.0 | 15.0 | 0.00 | 0.00 | 0.00 | 35 | 1015.4 |
| 20260502184519 | 65 | 13 | 4.0 | 14.0 | 0.00 | 0.00 | 0.00 | 36 | 1015.5 |
| 20260502183017 | 65 | 3.0 | 16.0 | 0.00 | 0.00 | 0.00 | 37 | 1015.5 | |
| 20260502181513 | 64 | 169 | 0.0 | 9.0 | 0.00 | 0.00 | 0.00 | 41 | 1015.8 |
| 20260502170103 | 60 | 139 | 0.0 | 12.0 | 0.00 | 0.00 | 0.00 | 48 | 1016.1 |
| 20260502163052 | 59 | 34 | 2.0 | 14.0 | 0.00 | 0.00 | 0.00 | 48 | 1016.0 |
| 20260502161550 | 58 | 27 | 10.0 | 18.0 | 0.00 | 0.00 | 0.00 | 45 | 1015.9 |
| 20260502151543 | 57 | 166 | 1.0 | 7.0 | 0.00 | 0.00 | 0.00 | 44 | 1015.5 |
| 20260502123056 | 43 | 149 | 0.0 | 0.0 | 0.00 | 0.00 | 0.00 | 64 | 1014.0 |
| 20260502121555 | 43 | 148 | 0.0 | 0.0 | 0.00 | 0.00 | 0.00 | 62 | 1014.0 |
| 20260502114551 | 43 | 21 | 0.0 | 0.0 | 0.00 | 0.00 | 0.00 | 63 | 1014.0 |
| 20260502113048 | 44 | 64 | 0.0 | 0.0 | 0.00 | 0.00 | 0.00 | 62 | 1013.9 |
| 20260502111517 | 45 | 255 | 0.0 | 0.0 | 0.00 | 0.00 | 0.00 | 61 | 1013.7 |
| 20260502110018 | 44 | 84 | 0.0 | 0.0 | 0.00 | 0.00 | 0.00 | 62 | 1013.7 |
| 20260502104513 | 44 | 139 | 0.0 | 0.0 | 0.00 | 0.00 | 0.00 | 62 | 1013.6 |
| 20260502103012 | 46 | 149 | 0.0 | 4.0 | 0.00 | 0.00 | 0.00 | 57 | 1013.5 |
| 20260502101513 | 47 | 12 | 0.0 | 5.0 | 0.00 | 0.00 | 0.00 | 56 | 1013.6 |
| 20260502091533 | 47 | 311 | 0.0 | 0.0 | 0.00 | 0.00 | 0.00 | 59 | 1013.1 |
| 20260502071507 | 50 | 56 | 0.0 | 0.0 | 0.00 | 0.00 | 0.00 | 52 | 1014.1 |
| 20260502070017 | 52 | 205 | 0.0 | 3.0 | 0.00 | 0.00 | 0.00 | 49 | 1014.2 |
| 20260502064505 | 51 | 0.0 | 2.0 | 0.00 | 0.00 | 0.00 | 51 | 1014.2 | |
| 20260502063102 | 52 | 229 | 0.0 | 4.0 | 0.00 | 0.00 | 0.00 | 51 | 1014.3 |
| 20260502061556 | 53 | 13 | 0.0 | 0.0 | 0.00 | 0.00 | 0.00 | 49 | 1014.4 |
| 20260502060056 | 53 | 30 | 0.0 | 1.0 | 0.00 | 0.00 | 0.00 | 49 | 1014.5 |
| 20260502054601 | 53 | 20 | 0.0 | 4.0 | 0.00 | 0.00 | 0.00 | 48 | 1014.5 |
| 20260502053055 | 54 | 237 | 0.0 | 7.0 | 0.00 | 0.00 | 0.00 | 48 | 1014.6 |
| 20260502051545 | 54 | 153 | 0.0 | 1.0 | 0.00 | 0.00 | 0.00 | 47 | 1014.8 |
| 20260502050042 | 55 | 31 | 0.0 | 4.0 | 0.00 | 0.00 | 0.00 | 45 | 1014.9 |
| 20260502044540 | 55 | 20 | 0.0 | 0.0 | 0.00 | 0.00 | 0.00 | 44 | 1014.9 |
| 20260502043038 | 55 | 338 | 0.0 | 0.0 | 0.00 | 0.00 | 0.00 | 45 | 1015.1 |
| 20260502041534 | 56 | 352 | 0.0 | 0.0 | 0.00 | 0.00 | 0.00 | 44 | 1015.1 |
| 20260502040032 | 56 | 136 | 0.0 | 0.0 | 0.00 | 0.00 | 0.00 | 43 | 1015.1 |
| 20260502034529 | 57 | 135 | 0.0 | 0.0 | 0.00 | 0.00 | 0.00 | 41 | 1015.1 |
| 20260502033032 | 58 | 211 | 0.0 | 0.0 | 0.00 | 0.00 | 0.00 | 40 | 1014.9 |
| 20260502031522 | 58 | 204 | 0.0 | 0.0 | 0.00 | 0.00 | 0.00 | 40 | 1014.8 |
| 20260502030021 | 60 | 349 | 0.0 | 0.0 | 0.00 | 0.00 | 0.00 | 37 | 1014.8 |
| 20260502024519 | 60 | 86 | 0.0 | 0.0 | 0.00 | 0.00 | 0.00 | 36 | 1014.6 |
| 20260502023019 | 61 | 136 | 0.0 | 0.0 | 0.00 | 0.00 | 0.00 | 35 | 1014.5 |
| 20260502021519 | 63 | 246 | 0.0 | 0.0 | 0.00 | 0.00 | 0.00 | 33 | 1014.6 |
| 20260502021517 | 63 | 95 | 0.0 | 0.0 | 0.00 | 0.00 | 0.00 | 33 | 1014.6 |
| 20260502020015 | 64 | 259 | 0.0 | 0.0 | 0.00 | 0.00 | 0.00 | 33 | 1014.7 |
| 20260502014525 | 67 | 188 | 0.0 | 0.0 | 0.00 | 0.00 | 0.00 | 31 | 1014.7 |
| 20260502013012 | 67 | 233 | 0.0 | 0.0 | 0.00 | 0.00 | 0.00 | 32 | 1014.7 |
| 20260502011512 | 68 | 196 | 0.0 | 0.0 | 0.00 | 0.00 | 0.00 | 29 | 1014.7 |
| 20260502010011 | 69 | 197 | 0.0 | 0.0 | 0.00 | 0.00 | 0.00 | 26 | 1014.9 |
| 20260502004513 | 69 | 287 | 0.0 | 4.0 | 0.00 | 0.00 | 0.00 | 26 | 1014.9 |
| 20260502003007 | 70 | 91 | 0.0 | 0.0 | 0.00 | 0.00 | 0.00 | 24 | 1015.0 |
| 20260502001503 | 70 | 226 | 0.0 | 0.0 | 0.00 | 0.00 | 0.00 | 23 | 1015.2 |
| 20260502000117 | 69 | 200 | 0.0 | 0.0 | 0.00 | 0.00 | 0.00 | 23 | 1015.4 |
| 20260501234559 | 70 | 13 | 0.0 | 0.0 | 0.00 | 0.00 | 0.00 | 23 | 1015.5 |
| 20260501233101 | 70 | 50 | 0.0 | 3.0 | 0.00 | 0.00 | 0.00 | 24 | 1015.5 |
| 20260501231559 | 70 | 255 | 0.0 | 0.0 | 0.00 | 0.00 | 0.00 | 24 | 1015.6 |
| 20260501230053 | 70 | 53 | 0.0 | 0.0 | 0.00 | 0.00 | 0.00 | 23 | 1015.8 |
| 20260501224550 | 70 | 134 | 0.0 | 0.0 | 0.00 | 0.00 | 0.00 | 22 | 1015.9 |